Location: Unspecified
(35.6961°N, 0.0000°E)
Time: 21:09:36
(UTC+00:00)

Altair - Pass Details

Date: 22 May 2019
Orbit: 1501 x 1683 km, 47.2° (Epoch: 18 June)

Event Time Altitude Azimuth Distance (km) Brightness Sun altitude
Rises 07:50:53 0° 292° (WNW) 4,937 9.7 34.5°
Reaches altitude 10° 07:54:19 10° 298° (WNW) 3,943 9.3 35.2°
Maximum altitude 08:03:56 45° 10° (N) 2,143 8.8 37.2°
Drops below altitude 10° 08:13:17 10° 81° (E) 3,844 10.8 39.1°
Sets 08:16:35 0° 87° (E) 4,803 11.0 39.8°
